ECMWFNIL_850_temp_087.txt.gz
Temp
13 13 13 13 13 13 13 13 13 13 14 14 14 15 15 15 15 15 15 14 14 14 14 14 14 14 13 13 13 13 13 13 13 13 13 13 13 13 13 13 13 13
12 12 12 13 13 12 13 13 13 13 13 13 13 14 15 15 15 15 14 14 14 14 14 14 14 14 13 13 13 13 13 13 13 13 13 13 13 13 13 13 13 13
12 12 12 12 13 12 12 12 12 13 13 13 13 13 14 14 14 14 14 14 14 13 13 14 14 13 13 13 13 13 13 13 13 13 13 13 13 13 13 13 13 13
13 12 11 11 12 12 12 12 12 12 12 13 13 13 13 13 13 13 13 13 13 13 13 13 13 13 13 13 13 13 13 13 13 13 13 13 13 12 13 13 13 13
12 12 11 11 12 12 12 12 12 12 12 12 13 13 12 12 13 13 13 13 13 13 12 12 13 12 12 13 13 13 13 13 13 12 13 13 13 12 13 13 13 13
12 12 11 11 11 11 11 12 12 12 13 13 13 13 12 12 12 13 13 13 13 12 12 12 13 13 13 13 14 13 13 13 13 12 13 13 13 12 12 13 13 13
11 12 12 11 11 11 11 12 12 12 12 13 13 13 12 12 12 12 12 12 12 12 12 12 12 13 13 13 14 14 13 13 13 13 13 13 13 12 12 13 13 13
10 11 12 12 12 11 11 11 12 12 12 13 13 13 12 12 12 12 12 12 12 12 13 12 12 13 13 13 14 14 14 14 13 13 13 13 12 12 12 13 13 13
10 10 12 12 12 12 12 12 12 12 12 12 12 12 12 12 13 13 12 12 13 13 13 13 12 13 13 13 13 14 14 14 13 13 13 13 13 12 12 13 13 13
9 10 11 12 12 12 12 12 12 11 12 12 12 12 12 12 13 13 12 12 13 13 13 13 12 13 13 13 13 13 14 13 13 13 13 13 13 12 12 12 13 13
9 10 12 12 12 12 12 12 12 12 12 12 12 12 12 12 13 12 12 13 13 13 13 13 12 12 13 13 13 13 13 13 13 14 14 13 13 12 12 12 13 13
9 10 10 11 12 13 12 12 12 12 12 12 11 11 11 12 12 12 12 13 13 13 13 13 13 13 12 12 12 13 13 13 13 13 13 13 13 13 12 12 13 13
9 8 8 9 10 11 12 12 13 12 12 11 10 10 11 11 12 12 12 12 13 13 13 13 13 13 12 12 12 13 13 13 13 13 13 13 13 13 12 12 12 13
8 7 7 7 9 9 10 11 12 12 12 11 10 10 10 11 11 12 12 12 13 13 13 13 13 13 12 12 12 12 13 13 12 13 13 13 13 13 12 12 12 13
7 7 7 7 8 8 8 9 10 10 10 10 10 10 10 11 11 11 11 12 12 12 12 12 12 12 13 13 12 12 12 13 12 12 13 13 13 13 13 12 13 13
7 7 6 6 7 7 7 8 9 9 9 9 9 10 10 10 10 11 11 11 11 12 12 12 12 12 13 13 12 12 12 12 12 12 12 13 13 13 13 13 13 13
7 6 6 6 6 6 6 7 8 8 8 8 9 9 10 10 10 10 11 11 11 11 11 11 11 12 12 12 12 12 12 12 12 12 12 12 13 13 12 13 13 13
6 6 6 5 5 5 5 6 7 8 8 9 9 9 9 9 10 10 10 10 11 11 11 11 11 12 12 12 12 12 12 12 12 12 12 12 12 12 12 12 12 12
6 6 5 5 5 5 5 6 7 7 8 8 8 8 9 9 9 10 10 10 10 10 10 11 11 11 12 12 12 12 12 12 12 12 12 12 12 12 12 12 12 12
5 5 5 5 5 5 5 6 7 7 7 7 7 8 8 9 9 9 9 9 10 10 10 10 10 11 11 12 12 12 12 12 12 12 12 12 12 12 12 12 12 12
5 5 5 4 4 4 5 6 6 6 6 6 6 7 7 7 8 8 9 9 9 9 9 10 10 10 10 11 11 11 11 12 12 12 12 12 12 12 12 12 12 12
5 5 5 4 4 4 4 5 6 6 6 5 5 6 6 6 6 7 8 8 8 8 9 9 9 9 10 10 10 11 11 11 12 12 12 12 11 11 11 12 12 12
5 5 4 4 4 4 4 4 5 5 5 5 5 5 5 5 6 6 6 6 7 7 7 8 8 9 9 9 10 11 11 11 11 11 11 12 11 11 11 11 11 11
5 4 4 3 4 3 3 3 4 4 4 4 5 5 5 5 5 5 5 5 6 6 6 7 7 8 8 9 10 10 10 11 11 11 11 11 11 11 11 11 11 12
4 3 3 3 3 3 3 3 3 3 3 4 4 4 4 4 5 5 5 5 5 5 5 6 6 7 8 8 9 10 10 10 10 11 11 11 10 10 11 11 12 12
3 3 3 3 3 3 3 3 3 3 3 3 3 3 4 4 4 4 4 4 4 5 5 6 6 7 7 7 8 8 9 10 11 11 10 10 10 11 11 11 12 12

ECMWFNIL_850_temp_093.txt.gz
Temp
14 14 14 13 12 12 11 11 11 12 12 12 12 12 12 12 12 12 12 12 12 12 12 13 13 13 13 13 13 13 13 12 13 13 12 12 12 12 12 12 13 13
13 13 13 13 13 13 12 11 11 12 11 11 12 12 12 12 11 12 12 12 12 12 12 13 13 13 13 13 13 13 13 12 13 13 13 13 12 12 12 12 12 13
12 12 13 13 13 13 12 12 11 11 11 11 11 11 12 12 11 12 12 12 12 12 12 12 13 13 13 13 12 12 12 12 13 13 13 13 13 12 12 12 12 13
11 11 12 12 12 12 12 12 12 12 11 11 11 11 11 12 12 12 12 12 12 13 13 13 13 12 12 12 12 12 12 12 12 13 13 13 12 12 12 12 12 12
10 10 11 11 11 11 12 12 12 12 12 11 11 12 12 12 11 12 12 12 12 13 13 13 13 13 13 13 13 12 12 12 12 12 13 13 12 12 12 12 12 12
9 9 10 10 10 10 11 11 11 12 12 11 11 12 12 12 12 11 12 12 12 12 12 13 13 13 13 13 13 13 12 12 12 12 12 12 12 12 12 12 12 12
9 9 9 9 9 10 11 11 11 12 12 12 12 12 12 12 12 11 11 12 12 12 12 13 13 13 13 13 13 12 12 12 12 12 12 12 12 12 12 12 12 12
8 8 8 8 9 10 10 11 11 12 12 12 12 12 12 12 11 11 11 11 11 12 12 13 12 12 12 12 13 12 12 12 12 12 12 12 12 12 12 12 12 12
8 8 8 9 9 9 10 10 10 11 11 11 11 11 11 11 10 10 10 10 11 11 12 12 12 12 12 12 12 12 13 13 12 12 12 12 12 13 13 13 12 12
8 8 8 9 9 9 9 9 9 10 10 10 9 9 9 10 10 9 10 10 10 11 11 11 12 12 12 11 12 12 12 12 12 12 12 12 12 12 13 13 13 13
7 8 8 8 8 9 8 8 9 9 9 8 8 7 7 8 8 9 9 10 10 10 11 11 11 11 11 11 11 11 11 11 12 12 13 12 12 12 12 13 13 13
7 7 7 6 7 8 8 8 8 8 8 7 7 6 6 7 7 8 8 9 10 10 10 10 11 11 11 11 11 11 11 11 11 12 12 12 13 12 12 13 13 13
5 5 5 5 6 7 7 7 7 7 7 7 6 6 6 6 7 7 8 8 9 9 10 10 10 10 11 11 11 11 11 12 11 11 12 12 13 12 12 13 13 13
4 4 4 4 5 6 6 6 7 7 7 7 6 6 6 6 7 7 7 8 8 9 9 10 10 10 10 11 11 11 11 11 11 11 11 12 12 12 12 12 13 13
4 4 4 4 5 5 5 6 6 6 6 6 7 6 6 6 7 7 7 7 8 8 9 9 9 9 9 10 10 11 11 11 11 11 11 11 11 12 11 12 12 12
4 4 4 4 4 4 4 5 5 5 5 6 6 6 6 6 6 7 7 7 7 8 8 8 8 9 9 9 9 10 10 11 11 11 11 11 11 11 11 11 11 12
3 3 3 3 3 3 3 4 4 4 4 5 5 5 5 5 6 6 6 6 7 7 7 8 8 8 9 9 9 9 10 10 11 11 11 11 11 11 11 11 11 12
3 3 3 3 3 3 3 3 3 3 4 4 4 5 4 4 5 5 5 6 6 6 7 7 8 8 9 9 9 9 9 10 10 10 11 11 11 11 11 11 11 11
3 3 3 3 3 2 2 2 2 2 2 3 3 4 4 4 4 4 5 5 5 6 6 6 7 8 8 9 9 9 9 9 10 10 10 11 11 11 11 11 11 11
3 3 3 3 3 3 2 2 2 2 2 2 3 3 3 3 4 4 4 4 4 5 5 5 6 7 8 8 9 9 9 9 9 10 10 10 10 11 11 11 11 11
3 3 3 3 3 3 2 2 2 2 2 2 2 2 2 2 2 3 3 3 4 4 5 5 5 6 7 8 8 9 9 9 9 9 10 10 10 11 11 11 11 11
3 2 3 3 3 3 2 2 2 2 2 1 1 1 1 1 2 2 2 3 3 4 4 4 5 5 7 7 8 8 8 8 9 9 9 10 10 10 10 10 11 11
3 2 3 3 3 3 2 2 2 2 1 1 1 1 1 1 1 1 2 2 3 3 3 4 4 4 5 6 7 7 7 8 8 9 9 9 9 9 9 10 10 10
2 2 3 3 3 3 2 2 2 2 2 2 1 1 1 1 1 1 1 2 2 2 2 3 3 4 4 5 5 6 7 7 7 8 8 8 9 9 9 9 10 10
2 2 2 2 2 2 2 2 2 2 2 2 2 2 1 1 1 1 1 1 1 1 1 2 2 3 4 4 5 5 6 6 7 7 8 8 8 8 8 9 9 10
2 2 2 2 2 2 2 2 2 2 2 2 2 2 2 2 1 1 1 1 1 1 1 1 1 2 3 4 5 5 5 6 6 7 7 7 7 8 8 9 9 10

ECMWFNIL_850_temp_096.txt.gz
Temp
11 12 12 12 11 12 11 11 11 11 11 12 12 12 12 12 12 11 11 12 12 12 12 12 12 13 13 13 13 13 13 13 13 13 13 13 13 12 12 12 12 12
12 12 12 12 12 12 12 12 12 11 12 12 12 12 12 12 12 11 11 11 12 12 12 12 12 12 13 13 13 13 12 12 12 12 12 12 12 12 12 12 12 12
11 11 11 12 12 12 13 13 13 12 12 12 12 12 12 12 12 11 11 11 11 11 12 12 12 12 12 12 12 12 12 12 12 12 12 12 12 12 12 12 12 12
10 11 11 12 12 12 12 13 13 13 13 13 13 13 12 11 11 11 11 11 11 11 11 11 11 11 11 12 12 12 12 12 12 12 12 12 12 12 12 12 12 12
10 10 11 11 12 12 12 13 13 13 13 13 13 13 13 12 11 11 10 10 10 11 11 11 11 11 11 11 12 12 12 12 12 12 12 12 13 12 13 12 12 12
9 10 11 11 12 12 13 13 13 13 13 13 13 13 13 12 12 10 10 10 10 10 10 11 11 11 11 11 11 12 12 12 12 12 12 12 12 12 12 12 12 12
9 10 10 11 12 12 13 13 13 13 13 12 12 12 12 12 11 10 9 9 9 9 10 10 10 11 11 11 11 11 11 11 12 12 12 12 12 12 12 12 12 12
9 10 10 11 12 12 12 12 12 12 12 12 12 12 11 11 11 9 8 9 9 9 9 10 10 10 10 10 11 11 11 11 11 11 11 12 12 12 12 12 12 12
9 10 10 11 11 11 12 11 11 11 11 12 12 11 10 10 10 8 8 8 9 9 9 9 9 10 10 10 10 10 10 11 11 11 11 12 12 12 12 12 12 12
8 9 10 10 11 11 11 11 10 10 11 11 11 10 10 9 9 8 7 8 8 8 8 9 9 9 9 10 10 10 10 10 11 11 12 12 12 12 12 12 12 12
7 9 9 10 10 10 9 9 9 9 10 9 9 9 8 8 8 8 7 7 7 8 8 8 9 9 9 9 10 10 10 10 10 11 11 12 12 12 12 12 12 12
6 8 8 8 8 8 8 8 8 8 8 8 8 8 7 7 7 7 7 7 7 7 7 8 8 8 9 9 9 10 10 10 10 11 11 11 12 12 12 12 12 12
6 6 7 7 7 7 7 7 7 7 7 7 7 7 7 7 7 7 7 7 7 7 7 7 7 8 8 9 9 10 10 10 10 11 11 11 11 12 12 12 12 12
4 5 5 6 6 6 6 6 6 6 6 7 7 7 7 7 7 7 7 7 7 7 7 7 7 8 8 9 9 10 10 10 10 11 11 11 11 12 12 12 12 12
4 4 5 5 5 5 5 5 5 6 6 6 6 6 6 6 6 7 7 7 7 7 7 7 8 8 8 8 9 9 10 10 10 11 11 11 11 11 12 12 12 12
3 4 4 4 4 5 5 5 5 5 5 6 6 6 6 6 6 6 7 7 7 7 7 7 8 8 8 8 8 9 9 10 10 10 11 11 11 11 11 12 12 12
3 3 3 4 4 4 4 4 5 5 5 5 5 5 5 5 6 6 6 6 6 6 7 7 7 7 8 8 8 8 8 9 10 10 10 11 11 11 11 11 12 12
3 3 3 3 3 3 4 4 4 5 5 5 5 5 5 5 5 5 5 5 5 6 6 6 6 7 7 8 8 8 8 9 9 10 10 10 11 11 11 11 11 11
4 3 3 3 3 3 4 4 4 4 4 4 4 4 4 4 5 5 5 5 5 5 5 5 6 6 7 7 8 8 8 8 9 9 9 9 10 10 11 11 11 11
4 3 3 3 3 3 4 4 4 4 4 4 4 4 4 4 4 4 4 4 4 4 4 5 5 5 6 7 7 8 8 8 8 8 9 9 9 9 10 10 11 11
4 3 3 3 3 3 3 4 4 4 3 3 3 3 3 3 3 4 4 4 4 4 4 4 4 5 5 6 7 7 7 7 7 8 8 8 9 9 9 9 10 11
3 3 3 3 3 3 3 3 3 3 3 3 3 3 3 3 3 3 3 3 3 3 3 3 3 4 5 5 6 6 6 7 7 7 8 8 8 8 8 9 9 10
3 3 3 2 2 3 3 3 3 3 3 3 3 3 3 2 2 2 2 2 2 2 2 2 2 3 3 4 5 6 6 6 7 7 7 7 8 8 8 8 9 9
2 2 2 2 2 2 2 2 2 2 2 2 2 2 2 2 2 2 2 2 2 2 2 2 2 2 2 3 4 5 6 6 6 6 7 7 7 7 7 8 8 9
2 2 2 2 2 2 2 2 2 2 2 2 2 2 2 2 2 1 1 1 1 2 2 2 1 1 1 2 3 4 4 5 5 6 6 6 6 6 7 7 8 8
2 1 1 1 1 1 1 1 2 2 2 2 2 2 2 2 2 2 1 1 1 1 1 1 1 1 1 1 1 2 3 3 4 5 5 4 5 5 6 7 8 8

ECMWFNIL_850_temp_102.txt.gz
Temp
13 13 13 13 14 14 14 14 14 14 14 14 14 14 14 14 14 13 13 13 12 11 11 11 11 10 11 11 11 11 12 12 12 12 11 11 12 12 11 11 11 11
12 12 13 13 14 14 14 14 14 14 14 14 14 14 14 14 13 13 13 13 13 12 12 11 11 11 11 10 10 10 11 11 11 11 11 11 11 11 11 11 12 12
12 12 13 13 13 14 14 14 14 14 14 14 14 13 13 14 13 13 13 13 13 13 12 12 11 11 11 10 10 9 9 10 10 10 11 11 11 11 11 11 11 11
12 12 13 13 13 13 13 13 13 13 13 13 13 13 13 13 13 13 13 13 12 12 11 11 11 11 10 10 10 9 9 9 9 9 9 10 10 10 11 10 10 10
12 12 13 13 13 13 13 13 13 13 13 13 13 13 13 13 13 13 13 12 12 11 11 11 10 10 10 10 10 10 9 9 8 8 8 9 9 9 9 10 9 10
12 12 13 13 13 13 13 13 13 13 13 13 13 13 13 13 13 12 12 12 12 11 11 11 10 10 10 10 10 10 10 10 9 8 8 8 8 8 9 9 9 9
11 12 12 12 12 12 12 12 12 12 12 12 12 12 12 12 12 11 11 11 11 10 10 10 10 10 10 10 10 10 10 10 9 9 8 8 8 8 8 8 9 9
11 11 11 11 12 12 12 12 12 12 11 11 11 11 11 11 10 10 10 10 9 9 9 9 9 9 9 9 10 10 9 9 9 9 9 8 8 8 8 8 9 9
10 10 11 11 11 11 11 11 11 10 10 10 10 10 10 10 9 9 9 9 9 8 8 8 8 8 9 9 9 9 9 9 9 9 9 9 8 8 8 9 9 9
10 10 10 10 9 9 9 9 9 9 9 9 9 9 9 9 9 8 8 8 8 8 8 8 8 8 9 9 9 9 9 9 9 9 9 9 9 9 9 9 9 9
9 9 8 9 8 8 8 8 8 8 8 8 8 8 8 8 8 8 8 8 8 8 8 8 8 8 8 9 8 8 8 8 9 9 9 9 9 9 9 9 9 9
8 8 8 8 8 8 8 8 8 8 8 8 8 8 8 8 8 8 8 8 8 7 7 7 7 7 7 8 8 8 8 8 8 8 8 8 9 9 9 8 8 8
7 7 7 7 7 8 8 8 8 8 7 7 7 7 7 7 7 7 7 7 7 7 6 6 6 6 6 7 7 7 7 8 8 8 7 7 7 8 7 7 7 8
6 6 6 7 7 7 7 7 7 7 7 7 7 7 7 7 7 6 6 6 6 6 5 5 5 5 5 6 6 6 6 7 7 6 6 5 6 6 6 6 6 7
5 6 6 6 6 7 7 6 6 6 6 6 6 6 6 6 6 6 6 6 5 5 5 5 5 5 4 4 5 5 5 5 5 5 5 5 5 5 5 6 6 7
5 5 6 6 6 6 6 6 5 5 5 5 5 5 5 5 5 5 5 5 5 5 5 5 5 4 3 3 4 4 4 5 4 4 4 5 5 5 5 6 6 7
5 5 5 5 5 5 5 5 5 5 5 5 5 5 5 5 5 5 5 5 4 4 4 4 4 4 3 3 4 4 4 4 4 4 4 5 5 5 5 6 6 7
5 5 5 5 5 5 5 5 5 5 5 5 5 5 5 5 5 4 4 4 4 4 4 4 4 4 4 4 4 3 4 4 4 4 4 4 5 5 5 5 5 6
4 4 5 5 5 4 4 4 4 5 5 5 4 4 4 4 4 4 4 4 4 4 4 4 4 3 3 3 3 3 3 4 4 4 4 4 4 4 4 5 5 6
4 4 4 4 4 4 4 4 4 4 4 4 4 4 4 4 4 3 3 3 3 3 3 3 3 3 3 3 3 3 3 3 3 3 3 3 3 3 4 4 5 5
4 4 4 4 4 4 4 4 4 4 4 4 4 4 3 3 3 3 3 3 3 3 3 3 3 2 2 3 3 3 3 3 3 3 3 3 3 3 3 3 4 4
4 4 4 4 4 4 4 4 4 4 3 3 3 3 3 3 3 3 3 3 3 2 2 2 2 2 2 2 2 3 3 3 3 3 3 2 2 2 2 2 3 3
3 3 4 4 4 4 4 4 3 3 3 3 3 3 3 3 3 2 2 2 2 2 2 2 2 2 2 2 2 2 3 3 3 3 2 2 1 1 1 1 1 2
3 3 3 4 4 4 4 3 3 3 2 2 2 2 2 2 2 2 2 2 2 2 2 2 2 2 2 2 2 2 2 2 2 2 2 1 1 0 0 0 1 1
3 3 3 3 3 3 3 3 2 2 2 2 2 2 2 2 2 2 2 2 2 2 2 2 2 1 1 1 1 2 2 2 2 2 1 1 1 0 -0 -0 0 0
2 3 3 3 3 2 2 2 2 1 1 1 2 2 2 2 2 2 2 2 2 2 2 2 2 1 1 1 1 1 1 1 1 1 1 1 1 0 -0 -1 -0 0

ECMWFNIL_850_temp_105.txt.gz
Temp
11 12 12 12 13 13 13 13 13 13 13 13 13 13 13 13 13 13 13 13 13 13 13 13 13 13 12 12 11 11 11 11 10 10 10 10 10 10 10 10 10 11
11 12 12 12 13 13 13 13 13 13 13 13 13 13 13 13 13 13 13 13 13 13 13 13 12 12 12 12 12 11 11 11 11 10 10 10 10 10 9 10 10 10
12 12 12 12 13 13 13 13 13 12 12 12 12 12 12 12 12 12 12 12 12 12 12 12 12 12 12 11 11 11 11 11 11 11 11 10 10 9 9 9 9 9
12 12 12 12 13 13 12 12 12 12 12 12 12 12 12 11 11 11 11 11 11 11 11 11 11 11 11 10 10 11 11 11 11 11 11 10 10 9 9 9 9 9
12 12 12 12 12 12 12 12 12 11 11 11 11 11 11 11 11 11 11 11 10 10 10 10 10 10 10 10 10 10 10 10 10 11 11 11 10 10 9 9 9 9
11 11 12 12 12 12 11 11 11 11 11 11 11 11 10 10 10 10 10 10 9 9 9 10 10 10 10 10 10 10 10 10 10 10 10 10 10 10 9 9 9 9
11 11 11 11 11 11 11 11 11 11 11 10 10 10 10 9 9 9 9 9 9 9 9 9 9 9 9 9 9 9 9 9 9 9 9 9 10 10 9 9 9 9
10 10 10 10 11 11 11 11 11 10 10 10 9 9 9 9 9 9 8 8 8 8 9 9 9 9 9 9 9 9 9 9 9 9 9 9 9 9 9 9 9 9
10 10 10 10 10 10 10 10 10 10 9 9 9 9 9 9 8 8 8 8 8 8 8 8 8 8 8 8 8 8 8 8 8 9 9 8 8 8 8 9 8 8
10 10 10 10 10 10 10 9 9 9 8 8 8 8 8 8 8 8 8 8 8 8 7 7 7 7 7 7 7 7 7 8 8 8 8 7 7 7 7 7 6 7
9 9 9 10 9 9 9 9 8 8 8 8 8 8 8 8 8 7 7 7 7 7 6 6 6 6 6 6 6 6 7 7 7 7 6 6 5 5 5 5 5 5
9 9 9 9 9 8 8 8 8 7 7 7 7 7 7 7 7 7 7 6 6 6 6 5 6 6 6 6 6 6 6 6 6 6 5 5 4 4 5 5 5 5
9 8 8 8 8 8 7 7 7 7 7 7 7 7 7 7 7 6 6 6 5 5 5 5 5 5 6 5 5 5 5 5 5 5 5 5 5 5 5 5 5 5
8 7 7 7 7 7 7 7 6 6 6 6 6 6 6 6 6 6 5 5 5 5 5 5 5 5 5 5 5 5 5 5 5 5 5 5 5 5 5 5 5 6
7 7 7 6 6 6 6 6 6 6 6 6 6 6 6 5 5 5 5 5 5 5 4 4 4 4 4 4 4 4 4 4 4 4 4 4 5 5 5 5 5 6
6 6 6 6 6 6 5 5 5 6 6 6 5 5 5 5 5 5 5 5 4 4 4 4 4 3 3 3 4 4 4 4 4 4 4 4 4 4 5 5 5 5
6 5 5 5 5 5 5 5 5 5 5 5 5 5 5 5 5 5 4 4 4 4 4 4 3 3 3 3 3 4 4 4 4 4 4 3 3 3 4 4 5 5
5 5 5 5 4 5 5 5 5 5 5 5 4 4 4 4 4 4 4 4 4 4 4 4 3 3 3 3 3 3 4 4 4 3 3 3 2 2 2 2 3 4
5 4 4 4 4 5 5 5 5 5 4 4 4 4 4 4 4 4 4 4 4 4 4 3 3 3 3 3 3 3 4 4 3 3 2 2 1 1 1 1 1 2
4 4 4 4 4 4 5 5 5 5 4 4 4 4 4 4 4 4 4 4 4 3 4 3 3 3 3 3 3 3 4 4 3 3 2 2 1 0 -0 -0 -0 0
4 4 4 4 4 4 5 5 5 5 4 4 4 4 4 4 4 4 4 3 3 3 3 3 3 3 3 3 3 4 4 4 3 3 2 2 2 1 -0 -1 -1 -0
4 4 4 4 4 4 5 5 5 4 4 4 4 4 4 4 4 3 3 3 3 3 3 3 3 3 3 3 3 4 4 4 3 3 2 2 1 1 -0 -1 -1 -0
4 4 4 4 4 5 5 5 4 4 3 3 3 3 3 3 3 3 3 3 3 3 3 3 3 3 3 3 3 3 3 3 3 2 2 1 1 0 -0 -1 -1 -1
4 4 5 5 5 5 5 4 4 3 3 3 3 3 3 3 3 3 3 3 3 3 3 3 2 2 3 3 3 3 3 2 2 2 1 1 0 0 -0 -0 -0 -1
4 5 5 5 5 5 4 4 3 3 3 3 3 3 3 3 3 3 3 3 3 3 3 3 2 2 2 2 2 2 2 2 1 1 1 0 0 -0 -0 -1 -1 -1
4 5 5 4 4 4 3 3 3 3 3 3 3 3 3 3 3 3 3 3 3 3 3 3 2 2 1 1 1 1 1 1 1 1 1 0 -0 -1 -1 -1 -1 -1